TimeMST,TemperatureF,Dew PointF,Humidity,Sea Level PressureIn,VisibilityMPH,Wind Direction,Wind SpeedMPH,Gust SpeedMPH,PrecipitationIn,Events,Conditions,WindDirDegrees,DateUTC
12:53 AM,36.0,6.1,29,30.02,10.0,West,21.9,26.5,N/A,,Clear,280,2013-01-19 07:53:00
1:53 AM,35.1,6.1,30,30.05,10.0,West,13.8,-,N/A,,Clear,280,2013-01-19 08:53:00
2:53 AM,34.0,5.0,30,30.06,10.0,WNW,13.8,-,N/A,,Clear,290,2013-01-19 09:53:00
3:53 AM,33.1,6.1,32,30.10,10.0,NW,6.9,-,N/A,,Clear,320,2013-01-19 10:53:00
4:53 AM,36.0,5.0,27,30.10,10.0,NNW,19.6,28.8,N/A,,Clear,330,2013-01-19 11:53:00
5:53 AM,34.0,5.0,30,30.17,10.0,NW,9.2,17.3,N/A,,Clear,320,2013-01-19 12:53:00
6:53 AM,30.9,6.1,35,30.21,10.0,West,11.5,-,N/A,,Clear,280,2013-01-19 13:53:00
7:53 AM,30.9,5.0,33,30.22,10.0,Calm,Calm,-,N/A,,Clear,0,2013-01-19 14:53:00
8:53 AM,35.1,6.1,30,30.24,10.0,West,9.2,-,N/A,,Clear,280,2013-01-19 15:53:00
9:53 AM,41.0,5.0,23,30.20,10.0,West,16.1,23.0,N/A,,Clear,280,2013-01-19 16:53:00
10:53 AM,45.0,5.0,19,30.19,10.0,West,20.7,28.8,N/A,,Clear,270,2013-01-19 17:53:00
11:53 AM,46.9,5.0,18,30.16,10.0,West,11.5,-,N/A,,Clear,260,2013-01-19 18:53:00
12:53 PM,48.9,-0.0,13,30.12,10.0,WNW,16.1,23.0,N/A,,Clear,290,2013-01-19 19:53:00
1:53 PM,50.0,3.0,15,30.11,10.0,West,17.3,24.2,N/A,,Clear,280,2013-01-19 20:53:00
2:53 PM,48.0,1.9,15,30.13,10.0,West,19.6,27.6,N/A,,Clear,280,2013-01-19 21:53:00
3:53 PM,46.9,1.9,16,30.14,10.0,WNW,23.0,28.8,N/A,,Clear,290,2013-01-19 22:53:00
4:53 PM,43.0,3.9,20,30.15,10.0,West,13.8,-,N/A,,Clear,270,2013-01-19 23:53:00
5:53 PM,39.0,7.0,27,30.19,10.0,WSW,10.4,-,N/A,,Clear,240,2013-01-20 00:53:00
6:53 PM,37.0,6.1,28,30.24,10.0,WNW,9.2,-,N/A,,Clear,290,2013-01-20 01:53:00
7:53 PM,33.1,8.1,35,30.26,10.0,WSW,8.1,-,N/A,,Clear,240,2013-01-20 02:53:00
8:53 PM,36.0,3.9,26,30.21,10.0,WSW,6.9,-,N/A,,Clear,240,2013-01-20 03:53:00
9:53 PM,34.0,3.9,28,30.17,10.0,WNW,4.6,-,N/A,,Clear,300,2013-01-20 04:53:00
10:53 PM,36.0,5.0,27,30.13,10.0,WSW,12.7,-,N/A,,Clear,240,2013-01-20 05:53:00
11:53 PM,34.0,9.0,35,30.12,10.0,Calm,Calm,-,N/A,,Clear,0,2013-01-20 06:53:00